Weather History for Rochester, NH

Change the Weather History Date:

Monday, December 24, 2012

  Actual Average (KSFM) Record (KSFM)
Temperature  
Mean Temperature 32 °F -  
Max Temperature 36 °F 33 °F 55 °F (1996)
Min Temperature 25 °F 15 °F 8 °F (1999)
Degree Days  
Heating Degree Days 34    
Moisture  
Dew Point 17 °F    
Average Humidity 58    
Maximum Humidity 76    
Minimum Humidity 37    
Precipitation  
Precipitation 0.00 in - - ()
Sea Level Pressure  
Sea Level Pressure 29.95 in    
Wind  
Wind Speed 4 mph (WNW)    
Max Wind Speed 12 mph    
Max Gust Speed 21 mph    
Visibility 10 miles    
Events      
Averages and records for this station are not official NWS values.
T = Trace of Precipitation, MM = Missing Value Source: NWS Daily Summary

Daily Weather History Graph

Daily Weather History Graph

Search for Another Location

Airport:

Trip Planner

Search our weather history database for the weather conditions in past years. The results will help you decide how hot, cold, wet, or windy it might be!

Date:

Astronomy

Dec. 24, 2012 Rise Set
Actual Time 7:14 AM EST 4:12 PM EST
Civil Twilight 6:41 AM EST 4:45 PM EST
Nautical Twilight 6:05 AM EST 5:21 PM EST
Astronomical Twilight 5:30 AM EST 5:56 PM EST
Moon 1:40 PM EST (12/24) 3:47 AM EST (12/24)
Length of Visible Light 10h 03m
Length of Day
8h 58m
Waxing Gibbous, 88% of the Moon is Illuminated
Dec 24
Waxing Gibbous
Dec 28
Full
Jan 4
Last Quarter
Jan 11
New
Jan 18
First Quarter

Hourly Weather History & Observations

Time (EST) Temp. Windchill Dew Point Humidity Pressure Visibility Wind Dir Wind Speed Gust Speed Precip Events Conditions
12:51 AM 30.9 °F 27.5 °F 21.9 °F 69% 29.79 in 10.0 mi Variable 3.5 mph - N/A   Overcast
1:51 AM 32.0 °F 28.7 °F 21.9 °F 66% 29.83 in 10.0 mi Variable 3.5 mph - N/A   Overcast
2:51 AM 32.0 °F - 21.9 °F 66% 29.84 in 10.0 mi Calm Calm - N/A   Overcast
3:51 AM 30.9 °F - 21.0 °F 67% 29.84 in 10.0 mi Calm Calm - N/A   Scattered Clouds
4:51 AM 32.0 °F 24.8 °F 21.9 °F 66% 29.86 in 10.0 mi WNW 8.1 mph - N/A   Overcast
5:16 AM 32.0 °F 28.7 °F 23.0 °F 69% 29.87 in 10.0 mi WNW 3.5 mph - N/A   Overcast
5:23 AM 32.0 °F 26.4 °F 23.0 °F 69% 29.88 in 10.0 mi NW 5.8 mph - N/A   Overcast
5:51 AM 30.9 °F 24.3 °F 24.1 °F 76% 29.90 in 10.0 mi NW 6.9 mph - N/A   Overcast
6:51 AM 28.0 °F 20.8 °F 19.9 °F 72% 29.94 in 10.0 mi NW 6.9 mph - N/A   Clear
7:51 AM 28.9 °F - 19.0 °F 67% 29.97 in 10.0 mi Calm Calm - N/A   Clear
8:51 AM 30.0 °F 25.2 °F 17.1 °F 59% 30.00 in 10.0 mi Variable 4.6 mph - N/A   Clear
9:51 AM 32.0 °F 24.2 °F 16.0 °F 52% 30.01 in 10.0 mi West 9.2 mph - N/A   Clear
10:51 AM 33.1 °F 25.5 °F 15.1 °F 48% 30.00 in 10.0 mi WNW 9.2 mph - N/A   Clear
11:51 AM 34.0 °F 25.5 °F 12.9 °F 42% 29.99 in 10.0 mi WNW 11.5 mph 20.7 mph N/A   Clear
12:51 PM 35.1 °F 27.4 °F 10.9 °F 37% 29.98 in 10.0 mi WNW 10.4 mph 18.4 mph N/A   Clear
1:51 PM 36.0 °F 30.3 °F 12.0 °F 37% 29.99 in 10.0 mi Variable 6.9 mph - N/A   Clear
2:51 PM 35.1 °F 30.1 °F 12.0 °F 39% 30.02 in 10.0 mi Variable 5.8 mph - N/A   Clear
3:51 PM 33.1 °F - 12.0 °F 42% 30.02 in 10.0 mi Calm Calm - N/A   Clear
4:51 PM 30.9 °F - 12.0 °F 46% 30.02 in 10.0 mi Calm Calm - N/A   Clear
5:51 PM 28.9 °F - 12.9 °F 51% 30.03 in 10.0 mi Calm Calm - N/A   Clear
6:51 PM 30.0 °F - 14.0 °F 51% 30.03 in 10.0 mi Calm Calm - N/A   Clear
7:51 PM 28.0 °F - 16.0 °F 61% 30.04 in 10.0 mi Calm Calm - N/A   Clear
9:51 PM 27.0 °F - 16.0 °F 63% 30.04 in 10.0 mi Calm Calm - N/A   Clear
11:51 PM 25.0 °F - 18.0 °F 75% 30.01 in 10.0 mi Calm Calm - N/A   Clear